This is the latest recevied weather packets stored in our database for station/object KP4CRN. If no packets are shown the sender has not sent any weather packets the latest 10 day(s).
| Time | Temp. | Humidity | Pressure | Rain* | Wind** | Luminosity | Snow |
|---|---|---|---|---|---|---|---|
| 1777548590 | 25.56° C | 93% | 1013.9 hPa | 0 mm | - | 115 W/m² | - |
| 1777548287 | 25.56° C | 93% | 1013.8 hPa | 0 mm | - | 95 W/m² | - |
| 1777547984 | 25.56° C | 94% | 1013.6 hPa | 0 mm | - | 77 W/m² | - |
| 1777547680 | 25.56° C | 94% | 1013.7 hPa | 0 mm | - | 81 W/m² | - |
| 1777547377 | 25.56° C | 94% | 1013.6 hPa | 0 mm | - | 79 W/m² | - |
| 1777547075 | 25.56° C | 94% | 1013.5 hPa | 0 mm | - | 72 W/m² | - |
| 1777546772 | 25° C | 95% | 1013.4 hPa | 0 mm | - | 69 W/m² | - |
| 1777546469 | 25° C | 95% | 1013.7 hPa | 0 mm | - | 68 W/m² | - |
| 1777546165 | 25° C | 96% | 1013.5 hPa | 0 mm | - | 58 W/m² | - |
| 1777545861 | 25° C | 96% | 1013.4 hPa | 0 mm | - | 41 W/m² | - |
| 1777545559 | 25° C | 96% | 1013.3 hPa | 0 mm | - | 30 W/m² | - |
| 1777545255 | 24.44° C | 97% | 1013.1 hPa | 0 mm | - | 24 W/m² | - |
| 1777544953 | 24.44° C | 97% | 1013 hPa | 0 mm | - | 20 W/m² | - |
| 1777544649 | 24.44° C | 97% | 1013.1 hPa | 0 mm | - | 13 W/m² | - |
| 1777544345 | 24.44° C | 97% | 1012.9 hPa | 0 mm | - | 9 W/m² | - |
| 1777544042 | 24.44° C | 97% | 1012.9 hPa | 0 mm | - | 8 W/m² | - |
| 1777543740 | 24.44° C | 97% | 1012.7 hPa | 0 mm | - | 6 W/m² | - |
| 1777543435 | 24.44° C | 97% | 1012.6 hPa | 0 mm | - | 4 W/m² | - |
| 1777543131 | 25° C | 96% | 1012.6 hPa | 0 mm | - | 2 W/m² | - |
| 1777542827 | 25° C | 96% | 1012.7 hPa | 0 mm | - | 1 W/m² | - |
| 1777542524 | 25° C | 96% | 1012.9 hPa | 0 mm | - | 1 W/m² | - |
| 1777542219 | 25° C | 95% | 1012.8 hPa | 0 mm | - | 0 W/m² | - |
| 1777541918 | 25° C | 95% | 1012.8 hPa | 0 mm | - | 0 W/m² | - |
| 1777541615 | 25° C | 95% | 1012.9 hPa | 0 mm | - | 0 W/m² | - |
| 1777541311 | 25° C | 95% | 1013 hPa | 0 mm | - | 0 W/m² | - |
* Rain latest hour (hover to see other rain measurements)
** Current wind speed in m/s (hover to see current wind gust speed)